Worthington, MN

10:00 PM CDT on July 29, 2016 (GMT -0500)
Worthington Municipal

Weather History for KOTG - December, 2013

Change the Weather History Date:

Sunday, December 29, 2013

  Actual Average Record
Temperature  
Mean Temperature -6 °F -  
Max Temperature -2 °F 22 °F 51 °F (1999)
Min Temperature -11 °F 8 °F -13 °F (1993)
Degree Days  
Heating Degree Days 72    
Moisture  
Dew Point -19 °F    
Average Humidity 57    
Maximum Humidity 70    
Minimum Humidity 49    
Precipitation  
Precipitation 0.00 in - - ()
Sea Level Pressure  
Sea Level Pressure 30.24 in    
Wind  
Wind Speed 22 mph (NW)    
Max Wind Speed 36 mph    
Max Gust Speed 40 mph    
Visibility 10 miles    
Events      
Averages and records for this station are not official NWS values.
T = Trace of Precipitation, MM = Missing Value Source: NWS Daily Summary

Daily Weather History Graph

Daily Weather History Graph

Search for Another Location

Airport or City:

Trip Planner

Search our weather history database for the weather conditions in past years. The results will help you decide how hot, cold, wet, or windy it might be!

Date:

Astronomy

Dec. 29, 2013 Rise Set
Actual Time 7:55 AM CST 4:53 PM CST
Civil Twilight 7:22 AM CST 5:26 PM CST
Nautical Twilight 6:46 AM CST 6:02 PM CST
Astronomical Twilight 6:11 AM CST 6:37 PM CST
Moon 4:37 AM CST (12/29) 2:34 PM CST (12/29)
Length of Visible Light 10h 03m
Length of Day
8h 58m
Waning Crescent, 11% of the Moon is Illuminated
Dec 29
Waning Crescent
Jan 1
New
Jan 7
First Quarter
Jan 15
Full
Jan 23
Last Quarter

Hourly Weather History & Observations

Time (CST) Temp. Windchill Dew Point Humidity Pressure Visibility Wind Dir Wind Speed Gust Speed Precip Events Conditions
12:15 AM - - - N/A% 30.10 in 3.0 mi NNW 29.9 mph 36.8 mph N/A   Overcast
12:35 AM - - - N/A% 30.11 in 2.5 mi NNW 28.8 mph 35.7 mph N/A   Overcast
12:55 AM - - - N/A% 30.11 in 4.0 mi NNW 31.1 mph 34.5 mph N/A   Overcast
1:15 AM - - - N/A% 30.13 in 8.0 mi NNW 33.4 mph 40.3 mph N/A   Overcast
1:35 AM - - - N/A% 30.13 in 5.0 mi NNW 34.5 mph 40.3 mph N/A   Overcast
1:55 AM - - - N/A% 30.14 in 6.0 mi NNW 35.7 mph 40.3 mph N/A   Overcast
2:15 AM - - - N/A% 30.15 in 9.0 mi NNW 31.1 mph - N/A   Overcast
2:35 AM - - - N/A% 30.16 in 10.0 mi NNW 26.5 mph 36.8 mph N/A   Scattered Clouds
2:55 AM - - - N/A% 30.17 in 9.0 mi NNW 26.5 mph - N/A   Clear
3:15 AM - - - N/A% 30.18 in 8.0 mi NNW 34.5 mph 39.1 mph N/A   Clear
3:35 AM - - - N/A% 30.18 in 10.0 mi NNW 27.6 mph 32.2 mph N/A   Clear
3:55 AM - - - N/A% 30.19 in 10.0 mi NNW 31.1 mph 36.8 mph N/A   Clear
4:15 AM - - - N/A% 30.18 in 10.0 mi NNW 26.5 mph 33.4 mph N/A   Clear
4:35 AM - - - N/A% 30.19 in 10.0 mi NNW 24.2 mph 31.1 mph N/A   Clear
4:55 AM - - - N/A% 30.20 in 10.0 mi NNW 29.9 mph 36.8 mph N/A   Clear
5:15 AM - - - N/A% 30.21 in 10.0 mi NNW 26.5 mph 34.5 mph N/A   Clear
5:35 AM - - - N/A% 30.22 in 10.0 mi NNW 25.3 mph - N/A   Clear
5:55 AM - - - N/A% 30.23 in 10.0 mi NNW 26.5 mph 36.8 mph N/A   Clear
6:15 AM - - - N/A% 30.24 in 10.0 mi NNW 25.3 mph 36.8 mph N/A   Clear
6:35 AM - - - N/A% 30.26 in 10.0 mi NNW 29.9 mph 35.7 mph N/A   Clear
6:55 AM -7.6 °F -33.9 °F -22.0 °F 50% 30.25 in 10.0 mi NNW 24.2 mph - N/A   Clear
7:15 AM -9.4 °F -33.5 °F -22.0 °F 54% 30.26 in 10.0 mi NNW 18.4 mph - N/A   Clear
7:35 AM -7.6 °F -33.4 °F -20.2 °F 54% 30.28 in 10.0 mi NNW 23.0 mph 29.9 mph N/A   Clear
7:55 AM - - - N/A% 30.27 in 10.0 mi NNW 19.6 mph - N/A   Clear
8:15 AM -9.4 °F -36.3 °F -23.8 °F 49% 30.29 in 10.0 mi NNW 24.2 mph - N/A   Clear
8:35 AM -7.6 °F -33.9 °F -20.2 °F 54% 30.30 in 10.0 mi NNW 24.2 mph 31.1 mph N/A   Clear
8:55 AM -9.4 °F -34.1 °F -20.2 °F 59% 30.31 in 10.0 mi NNW 19.6 mph - N/A   Clear
9:15 AM -9.4 °F -35.2 °F -20.2 °F 59% 30.32 in 10.0 mi NNW 21.9 mph 26.5 mph N/A   Clear
9:35 AM -7.6 °F -32.3 °F -20.2 °F 54% 30.32 in 10.0 mi NNW 20.7 mph - N/A   Clear
9:55 AM -7.6 °F -31.1 °F -20.2 °F 54% 30.33 in 10.0 mi NNW 18.4 mph - N/A   Clear
10:15 AM -7.6 °F -30.5 °F -20.2 °F 54% 30.33 in 10.0 mi NNW 17.3 mph 23.0 mph N/A   Clear
10:35 AM -7.6 °F -31.1 °F -18.4 °F 59% 30.34 in 10.0 mi NNW 18.4 mph - N/A   Clear
10:55 AM -7.6 °F -31.1 °F -18.4 °F 59% 30.33 in 10.0 mi NW 18.4 mph - N/A   Clear
11:15 AM -5.8 °F -27.5 °F -18.4 °F 55% 30.34 in 10.0 mi NNW 16.1 mph - N/A   Clear
11:35 AM -5.8 °F -28.8 °F -18.4 °F 55% 30.33 in 10.0 mi NNW 18.4 mph - N/A   Clear
11:55 AM -5.8 °F -27.5 °F -18.4 °F 55% 30.32 in 10.0 mi NNW 16.1 mph - N/A   Clear
12:15 PM -5.8 °F -26.8 °F -16.6 °F 60% 30.31 in 10.0 mi NW 15.0 mph - N/A   Clear
12:35 PM -4.0 °F -24.5 °F -16.6 °F 55% 30.30 in 10.0 mi NNW 15.0 mph - N/A   Clear
12:55 PM -4.0 °F -24.5 °F -16.6 °F 55% 30.30 in 10.0 mi NNW 15.0 mph - N/A   Clear
1:15 PM -4.0 °F -26.4 °F -16.6 °F 55% 30.29 in 10.0 mi NW 18.4 mph - N/A   Clear
1:35 PM -2.2 °F -22.9 °F -16.6 °F 50% 30.29 in 10.0 mi NW 16.1 mph - N/A   Clear
1:55 PM -2.2 °F -22.9 °F -16.6 °F 50% 30.28 in 10.0 mi NNW 16.1 mph - N/A   Clear
2:15 PM -2.2 °F -22.2 °F -16.6 °F 50% 30.28 in 10.0 mi NW 15.0 mph - N/A   Clear
2:35 PM -2.2 °F -22.2 °F -16.6 °F 50% 30.28 in 10.0 mi NW 15.0 mph - N/A   Clear
2:55 PM -2.2 °F -22.2 °F -16.6 °F 50% 30.28 in 10.0 mi NW 15.0 mph - N/A   Clear
3:15 PM -2.2 °F -21.5 °F -16.6 °F 50% 30.28 in 10.0 mi NW 13.8 mph - N/A   Clear
3:35 PM -2.2 °F -19.9 °F -16.6 °F 50% 30.27 in 10.0 mi WNW 11.5 mph - N/A   Clear
3:55 PM -4.0 °F -20.2 °F -16.6 °F 55% 30.26 in 10.0 mi WNW 9.2 mph - N/A   Clear
4:15 PM -4.0 °F -17.8 °F -16.6 °F 55% 30.25 in 10.0 mi WNW 6.9 mph - N/A   Clear
4:35 PM -5.8 °F -21.2 °F -16.6 °F 60% 30.26 in 10.0 mi WNW 8.1 mph - N/A   Clear
4:55 PM -5.8 °F -21.2 °F -18.4 °F 55% 30.25 in 10.0 mi West 8.1 mph - N/A   Clear
5:15 PM -7.6 °F -22.1 °F -18.4 °F 59% 30.25 in 10.0 mi West 6.9 mph - N/A   Clear
5:35 PM -7.6 °F -24.6 °F -20.2 °F 54% 30.25 in 10.0 mi West 9.2 mph - N/A   Clear
5:55 PM -9.4 °F -25.6 °F -18.4 °F 65% 30.24 in 10.0 mi West 8.1 mph - N/A   Clear
6:15 PM -9.4 °F -18.6 °F -20.2 °F 59% 30.24 in 10.0 mi West 3.5 mph - N/A   Clear
6:35 PM -9.4 °F -20.9 °F -20.2 °F 59% 30.24 in 10.0 mi West 4.6 mph - N/A   Clear
6:55 PM -9.4 °F - -20.2 °F 59% 30.23 in 10.0 mi Calm Calm - N/A   Clear
7:15 PM -9.4 °F -18.6 °F -18.4 °F 65% 30.24 in 10.0 mi West 3.5 mph - N/A   Clear
7:35 PM -9.4 °F -20.9 °F -20.2 °F 59% 30.24 in 10.0 mi West 4.6 mph - N/A   Clear
7:55 PM -11.2 °F -20.6 °F -20.2 °F 64% 30.23 in 10.0 mi West 3.5 mph - N/A   Clear
8:15 PM -9.4 °F -20.9 °F -20.2 °F 59% 30.22 in 10.0 mi West 4.6 mph - N/A   Clear
8:35 PM -9.4 °F -18.6 °F -20.2 °F 59% 30.22 in 10.0 mi West 3.5 mph - N/A   Clear
8:55 PM -11.2 °F -20.6 °F -18.4 °F 70% 30.21 in 10.0 mi West 3.5 mph - N/A   Clear
9:15 PM -11.2 °F -20.6 °F -20.2 °F 64% 30.21 in 10.0 mi West 3.5 mph - N/A   Clear
9:35 PM -9.4 °F - -18.4 °F 65% 30.21 in 10.0 mi Calm Calm - N/A   Clear
9:55 PM -9.4 °F -20.9 °F -18.4 °F 65% 30.21 in 10.0 mi West 4.6 mph - N/A   Clear
10:15 PM -9.4 °F -22.7 °F -18.4 °F 65% 30.20 in 10.0 mi WSW 5.8 mph - N/A   Partly Cloudy
10:35 PM -7.6 °F -22.1 °F -18.4 °F 59% 30.20 in 10.0 mi WSW 6.9 mph - N/A   Mostly Cloudy
10:55 PM -7.6 °F -22.1 °F -16.6 °F 65% 30.20 in 10.0 mi West 6.9 mph - N/A   Mostly Cloudy
11:15 PM -5.8 °F -21.2 °F -16.6 °F 60% 30.19 in 10.0 mi WSW 8.1 mph - N/A   Overcast
11:35 PM -4.0 °F -17.8 °F -14.8 °F 60% 30.19 in 10.0 mi WSW 6.9 mph - N/A   Overcast
11:55 PM -4.0 °F -12.4 °F -14.8 °F 60% 30.19 in 10.0 mi SW 3.5 mph - N/A   Overcast